Fremont, NE

2:09 PM CST on January 20, 2017 (GMT -0600)
Fremont

Weather History for KFET - March, 2013

Change the Weather History Date:

Tuesday, March 12, 2013

  Actual Average Record
Temperature  
Mean Temperature 24 °F -  
Max Temperature 32 °F 49 °F 77 °F (2015)
Min Temperature 15 °F 28 °F -7 °F (1998)
Degree Days  
Heating Degree Days 42    
Moisture  
Dew Point 22 °F    
Average Humidity 82    
Maximum Humidity 98    
Minimum Humidity 72    
Precipitation  
Precipitation 0.00 in - - ()
Sea Level Pressure  
Sea Level Pressure 30.17 in    
Wind  
Wind Speed 11 mph (WNW)    
Max Wind Speed 25 mph    
Max Gust Speed 34 mph    
Visibility 10 miles    
Events      
Averages and records for this station are not official NWS values.
T = Trace of Precipitation, MM = Missing Value Source: NWS Daily Summary

Daily Weather History Graph

Daily Weather History Graph

Search for Another Location

Airport or City:

Trip Planner

Search our weather history database for the weather conditions in past years. The results will help you decide how hot, cold, wet, or windy it might be!

Date:

Astronomy

Mar. 12, 2013 Rise Set
Actual Time 7:42 AM CDT 7:29 PM CDT
Civil Twilight 7:14 AM CDT 7:57 PM CDT
Nautical Twilight 6:42 AM CDT 8:29 PM CDT
Astronomical Twilight 6:10 AM CDT 9:01 PM CDT
Moon 7:48 AM CDT (3/12) 8:47 PM CDT (3/12)
Length of Visible Light 12h 42m
Length of Day
11h 47m
New Moon, 1% of the Moon is Illuminated
Mar 12
New Moon
Mar 19
First Quarter
Mar 27
Full
Apr 2
Last Quarter
Apr 10
New

Hourly Weather History & Observations

Time (CDT) Temp. Windchill Dew Point Humidity Pressure Visibility Wind Dir Wind Speed Gust Speed Precip Events Conditions
12:15 AM 15.8 °F 10.2 °F 14.0 °F 93% 30.02 in 10.0 mi WNW 3.5 mph - N/A   Clear
12:35 AM 18.1 °F 12.9 °F 17.1 °F 96% 30.02 in 10.0 mi WNW 3.5 mph - N/A   Clear
12:55 AM 17.4 °F 10.4 °F 16.5 °F 96% 30.02 in 10.0 mi West 4.6 mph - N/A   Clear
1:15 AM 19.9 °F 13.4 °F 18.9 °F 96% 30.02 in 10.0 mi WNW 4.6 mph - N/A   Clear
1:35 AM 17.1 °F 8.7 °F 15.8 °F 95% 30.03 in 10.0 mi West 5.8 mph - N/A   Clear
1:55 AM 21.0 °F 11.4 °F 20.5 °F 98% 30.04 in 10.0 mi West 8.1 mph - N/A   Clear
2:15 AM 18.0 °F 6.9 °F 16.9 °F 96% 30.04 in 10.0 mi West 9.2 mph - N/A   Clear
2:35 AM 23.7 °F 15.6 °F 21.9 °F 93% 30.05 in 10.0 mi West 6.9 mph - N/A   Clear
2:55 AM 21.7 °F 13.2 °F 20.5 °F 95% 30.05 in 10.0 mi West 6.9 mph - N/A   Clear
3:15 AM 23.2 °F 14.1 °F 21.2 °F 92% 30.05 in 10.0 mi West 8.1 mph - N/A   Clear
3:35 AM 21.7 °F 12.3 °F 19.9 °F 93% 30.05 in 10.0 mi West 8.1 mph - N/A   Clear
3:55 AM 20.3 °F 12.5 °F 18.9 °F 94% 30.04 in 10.0 mi West 5.8 mph - N/A   Clear
4:15 AM 20.5 °F 11.7 °F 19.4 °F 96% 30.03 in 10.0 mi West 6.9 mph - N/A   Clear
4:35 AM 20.1 °F 10.3 °F 18.7 °F 94% 30.03 in 10.0 mi West 8.1 mph - N/A   Clear
4:55 AM 18.7 °F 9.5 °F 18.0 °F 97% 30.03 in 10.0 mi West 6.9 mph - N/A   Clear
5:15 AM 20.8 °F 11.2 °F 19.8 °F 96% 30.03 in 10.0 mi West 8.1 mph - N/A   Clear
5:35 AM 21.2 °F 10.1 °F 19.9 °F 95% 30.04 in 10.0 mi West 10.4 mph - N/A   Clear
5:55 AM 25.3 °F 14.1 °F 22.8 °F 90% 30.05 in 10.0 mi West 12.7 mph - N/A   Scattered Clouds
6:15 AM 23.2 °F 12.6 °F 20.7 °F 90% 30.05 in 10.0 mi West 10.4 mph - N/A   Scattered Clouds
6:35 AM 23.7 °F 13.3 °F 21.6 °F 91% 30.06 in 10.0 mi West 10.4 mph - N/A   Scattered Clouds
6:55 AM 25.9 °F 14.8 °F 21.7 °F 84% 30.06 in 10.0 mi West 12.7 mph - N/A   Clear
7:15 AM 28.2 °F 14.5 °F 22.6 °F 80% 30.08 in 10.0 mi WNW 21.9 mph - N/A   Clear
7:35 AM 30.2 °F 17.4 °F 23.4 °F 76% 30.09 in 10.0 mi WNW 20.7 mph 25.3 mph N/A   Clear
7:55 AM 29.1 °F 16.7 °F 23.2 °F 78% 30.10 in 10.0 mi WNW 18.4 mph - N/A   Scattered Clouds
8:15 AM 28.2 °F 17.2 °F 22.8 °F 80% 30.10 in 10.0 mi West 13.8 mph - N/A   Mostly Cloudy
8:35 AM 29.3 °F 17.7 °F 23.5 °F 79% 30.11 in 10.0 mi WNW 16.1 mph - N/A   Overcast
8:55 AM 30.0 °F 18.3 °F 24.3 °F 79% 30.12 in 10.0 mi WNW 17.3 mph - N/A   Overcast
9:15 AM 31.8 °F 19.0 °F 24.4 °F 74% 30.13 in 10.0 mi WNW 23.0 mph 29.9 mph N/A   Overcast
9:35 AM 32.2 °F 20.4 °F 24.8 °F 74% 30.13 in 10.0 mi WNW 19.6 mph - N/A   Overcast
9:55 AM 32.0 °F 20.1 °F 25.3 °F 76% 30.14 in 10.0 mi WNW 19.6 mph 25.3 mph N/A   Overcast
10:15 AM 32.0 °F 19.8 °F 25.7 °F 78% 30.15 in 10.0 mi WNW 20.7 mph - N/A   Overcast
10:35 AM 32.0 °F 19.5 °F 25.2 °F 76% 30.16 in 10.0 mi WNW 21.9 mph 26.5 mph N/A   Overcast
10:55 AM 32.0 °F 18.6 °F 24.8 °F 75% 30.16 in 10.0 mi WNW 25.3 mph 32.2 mph N/A   Overcast
11:15 AM 32.0 °F 19.8 °F 25.2 °F 76% 30.18 in 10.0 mi NW 20.7 mph 29.9 mph N/A   Overcast
11:35 AM 32.0 °F 18.9 °F 24.6 °F 74% 30.19 in 10.0 mi WNW 24.2 mph 29.9 mph N/A   Mostly Cloudy
11:55 AM 32.2 °F 19.7 °F 25.3 °F 76% 30.19 in 10.0 mi NW 21.9 mph - N/A   Scattered Clouds
12:15 PM 32.9 °F 21.6 °F 25.7 °F 75% 30.19 in 10.0 mi WNW 18.4 mph 24.2 mph N/A   Mostly Cloudy
12:35 PM 32.2 °F 19.4 °F 25.5 °F 76% 30.21 in 10.0 mi NW 23.0 mph 34.5 mph N/A   Overcast
12:55 PM 32.0 °F 19.5 °F 25.0 °F 75% 30.21 in 10.0 mi WNW 21.9 mph 28.8 mph N/A   Overcast
1:15 PM 32.4 °F 19.4 °F 25.2 °F 75% 30.22 in 10.0 mi NW 24.2 mph 28.8 mph N/A   Overcast
1:35 PM 32.9 °F 20.4 °F 25.9 °F 75% 30.22 in 10.0 mi NW 23.0 mph - N/A   Overcast
1:55 PM 32.0 °F 19.5 °F 25.0 °F 75% 30.23 in 10.0 mi NW 21.9 mph 28.8 mph N/A   Overcast
2:15 PM 32.0 °F 18.9 °F 24.8 °F 75% 30.23 in 10.0 mi NW 24.2 mph - N/A   Overcast
2:35 PM 32.0 °F 19.5 °F 24.6 °F 74% 30.23 in 10.0 mi NW 21.9 mph 27.6 mph N/A   Overcast
2:55 PM 32.0 °F 19.5 °F 24.3 °F 73% 30.23 in 10.0 mi NW 21.9 mph 28.8 mph N/A   Overcast
3:15 PM 32.0 °F 21.2 °F 23.9 °F 72% 30.22 in 10.0 mi NW 16.1 mph 25.3 mph N/A   Overcast
3:35 PM 32.0 °F 21.6 °F 24.6 °F 74% 30.23 in 10.0 mi NW 15.0 mph - N/A   Overcast
3:55 PM 32.0 °F 20.1 °F 24.3 °F 73% 30.24 in 10.0 mi NW 19.6 mph 27.6 mph N/A   Overcast
4:15 PM 32.0 °F 22.1 °F 24.1 °F 73% 30.24 in 10.0 mi NW 13.8 mph 21.9 mph N/A   Overcast
4:35 PM 32.0 °F 21.2 °F 24.6 °F 74% 30.25 in 10.0 mi NW 16.1 mph - N/A   Overcast
4:55 PM 31.8 °F 19.0 °F 23.9 °F 73% 30.26 in 10.0 mi NW 23.0 mph 27.6 mph N/A   Overcast
5:15 PM 31.1 °F 19.3 °F 24.1 °F 75% 30.26 in 10.0 mi NW 18.4 mph 21.9 mph N/A   Overcast
5:35 PM 31.1 °F 19.7 °F 23.9 °F 75% 30.26 in 10.0 mi NW 17.3 mph - N/A   Overcast
5:55 PM 31.1 °F 18.9 °F 23.0 °F 72% 30.27 in 10.0 mi NW 19.6 mph 25.3 mph N/A   Overcast
6:15 PM 30.7 °F 19.2 °F 23.7 °F 75% 30.27 in 10.0 mi NW 17.3 mph - N/A   Overcast
6:35 PM 30.6 °F 17.6 °F 22.6 °F 72% 30.27 in 10.0 mi WNW 21.9 mph - N/A   Overcast
6:55 PM 30.2 °F 18.9 °F 22.6 °F 73% 30.27 in 10.0 mi NW 16.1 mph - N/A   Overcast
7:15 PM 30.2 °F 18.9 °F 23.0 °F 75% 30.28 in 10.0 mi NW 16.1 mph - N/A   Overcast
7:35 PM 29.8 °F 19.8 °F 23.5 °F 77% 30.28 in 10.0 mi NW 12.7 mph 18.4 mph N/A   Overcast
7:55 PM 29.3 °F 18.2 °F 23.5 °F 79% 30.29 in 10.0 mi NW 15.0 mph - N/A   Overcast
8:15 PM 28.9 °F 18.6 °F 23.7 °F 81% 30.29 in 10.0 mi WNW 12.7 mph - N/A   Overcast
8:35 PM 29.3 °F 18.6 °F 23.7 °F 80% 30.30 in 10.0 mi NW 13.8 mph - N/A   Overcast
8:55 PM 28.2 °F 18.9 °F 22.8 °F 80% 30.30 in 10.0 mi NW 10.4 mph - N/A   Mostly Cloudy
9:15 PM 27.5 °F 18.0 °F 22.3 °F 81% 30.30 in 10.0 mi NW 10.4 mph - N/A   Scattered Clouds
9:35 PM 26.4 °F 16.6 °F 21.2 °F 81% 30.31 in 10.0 mi WNW 10.4 mph - N/A   Scattered Clouds
9:55 PM 23.9 °F 15.8 °F 20.1 °F 85% 30.31 in 10.0 mi NW 6.9 mph - N/A   Clear
10:15 PM 22.1 °F 14.7 °F 19.2 °F 89% 30.31 in 10.0 mi NW 5.8 mph - N/A   Clear
10:35 PM 22.1 °F 17.4 °F 19.2 °F 89% 30.31 in 10.0 mi NW 3.5 mph - N/A   Clear
10:55 PM 20.8 °F 16.0 °F 18.0 °F 89% 30.32 in 10.0 mi WNW 3.5 mph - N/A   Clear
11:15 PM 20.8 °F 16.0 °F 18.5 °F 91% 30.32 in 10.0 mi NW 3.5 mph - N/A   Clear
11:35 PM 19.6 °F 13.0 °F 17.1 °F 90% 30.33 in 10.0 mi West 4.6 mph - N/A   Clear
11:55 PM 17.8 °F 10.9 °F 15.8 °F 92% 30.33 in 10.0 mi West 4.6 mph - N/A   Clear